Total_Precipitation_Accumulation
0.54 0.50 0.42 0.39 0.29 0.22 0.20 0.20 0.18 0.15 0.11 0.06 0.04 0.06 0.06 0.05 0.10 0.16 0.28 0.37 0.51 0.53 0.46 0.30 0.19 0.18 0.22 0.21 0.23 0.29 0.36 0.39 0.43 0.43 0.33 0.25 0.19 0.13 0.08 0.07 0.07 0.09 0.10
0.65 0.61 0.53 0.46 0.42 0.35 0.33 0.34 0.28 0.24 0.18 0.12 0.06 0.05 0.05 0.06 0.06 0.09 0.20 0.42 0.57 0.54 0.59 0.56 0.41 0.30 0.25 0.22 0.24 0.27 0.31 0.32 0.35 0.39 0.33 0.24 0.17 0.12 0.07 0.06 0.07 0.09 0.10
0.65 0.61 0.56 0.48 0.46 0.48 0.46 0.45 0.39 0.29 0.20 0.14 0.08 0.06 0.04 0.05 0.06 0.04 0.05 0.11 0.22 0.33 0.43 0.49 0.52 0.43 0.33 0.27 0.27 0.24 0.23 0.25 0.29 0.34 0.35 0.27 0.19 0.15 0.11 0.10 0.09 0.09 0.08
0.73 0.71 0.68 0.62 0.59 0.59 0.53 0.51 0.50 0.41 0.27 0.18 0.13 0.09 0.06 0.04 0.04 0.03 0.03 0.02 0.04 0.11 0.24 0.27 0.34 0.36 0.39 0.39 0.38 0.28 0.20 0.17 0.18 0.25 0.32 0.31 0.23 0.19 0.17 0.17 0.14 0.11 0.08
0.82 0.91 0.87 0.87 0.79 0.74 0.66 0.58 0.52 0.45 0.36 0.26 0.18 0.13 0.08 0.05 0.04 0.03 0.03 0.03 0.04 0.05 0.11 0.10 0.13 0.15 0.19 0.24 0.30 0.30 0.21 0.15 0.13 0.16 0.20 0.24 0.22 0.20 0.21 0.21 0.15 0.12 0.10
1.15 1.25 1.27 1.18 1.12 1.04 0.95 0.83 0.77 0.64 0.49 0.41 0.30 0.19 0.12 0.09 0.06 0.04 0.04 0.04 0.04 0.03 0.03 0.03 0.06 0.06 0.06 0.10 0.13 0.18 0.17 0.16 0.13 0.12 0.15 0.17 0.17 0.15 0.18 0.22 0.19 0.18 0.18
1.52 1.59 1.51 1.54 1.49 1.30 1.22 1.22 1.19 1.07 0.78 0.55 0.52 0.39 0.23 0.14 0.12 0.09 0.08 0.06 0.07 0.05 0.04 0.04 0.03 0.04 0.04 0.03 0.05 0.11 0.17 0.20 0.18 0.15 0.14 0.15 0.14 0.12 0.13 0.18 0.19 0.22 0.24
1.73 1.73 1.80 1.82 1.81 1.75 1.64 1.45 1.44 1.49 1.18 0.82 0.83 0.95 0.62 0.38 0.20 0.13 0.12 0.11 0.11 0.10 0.09 0.08 0.05 0.04 0.02 0.03 0.03 0.05 0.11 0.19 0.21 0.17 0.14 0.13 0.11 0.08 0.08 0.12 0.15 0.18 0.22
1.94 1.96 2.01 2.03 1.97 1.79 1.73 1.75 1.76 2.00 1.73 1.28 1.02 1.12 0.91 0.67 0.44 0.21 0.15 0.16 0.17 0.15 0.15 0.14 0.11 0.08 0.07 0.05 0.05 0.03 0.03 0.07 0.14 0.17 0.16 0.14 0.12 0.09 0.08 0.08 0.11 0.14 0.15
1.87 1.97 1.97 1.95 1.90 1.79 1.82 1.87 1.82 2.06 2.15 1.77 1.40 1.07 0.81 0.69 0.67 0.48 0.28 0.22 0.23 0.19 0.16 0.14 0.10 0.10 0.10 0.09 0.10 0.08 0.05 0.05 0.08 0.14 0.18 0.18 0.16 0.13 0.11 0.09 0.10 0.11 0.12
1.76 1.77 1.77 1.82 1.84 1.84 1.87 2.01 2.04 2.20 2.16 2.07 1.76 1.54 1.35 1.06 0.75 0.68 0.60 0.41 0.31 0.24 0.21 0.20 0.17 0.16 0.15 0.14 0.16 0.16 0.12 0.06 0.06 0.14 0.21 0.23 0.20 0.18 0.18 0.15 0.13 0.12 0.11
1.71 1.64 1.63 1.67 1.77 1.89 1.92 1.96 2.04 2.22 2.27 2.27 2.05 1.76 1.62 1.47 1.24 1.09 0.83 0.65 0.53 0.37 0.28 0.25 0.26 0.23 0.21 0.21 0.24 0.32 0.23 0.13 0.08 0.12 0.17 0.23 0.24 0.22 0.22 0.22 0.20 0.19 0.17
1.41 1.44 1.53 1.60 1.71 1.83 1.88 1.93 2.04 2.03 2.10 2.28 2.24 2.00 1.76 1.53 1.45 1.32 1.17 0.91 0.72 0.47 0.34 0.29 0.29 0.29 0.26 0.24 0.29 0.35 0.24 0.16 0.10 0.08 0.09 0.12 0.16 0.19 0.20 0.19 0.20 0.22 0.22
1.28 1.24 1.28 1.38 1.58 1.76 1.84 1.87 1.84 1.81 1.85 1.99 1.98 1.98 1.92 1.65 1.52 1.37 1.28 1.30 1.10 0.84 0.55 0.35 0.29 0.29 0.28 0.26 0.32 0.37 0.25 0.19 0.14 0.10 0.09 0.10 0.10 0.13 0.15 0.17 0.19 0.19 0.19
1.07 1.01 1.02 1.08 1.19 1.41 1.64 1.76 1.65 1.56 1.54 1.62 1.69 1.78 1.88 1.87 1.74 1.58 1.52 1.44 1.34 1.11 0.88 0.63 0.44 0.33 0.32 0.30 0.34 0.30 0.28 0.28 0.23 0.17 0.14 0.12 0.11 0.11 0.13 0.14 0.15 0.13 0.13
0.92 0.90 0.87 0.90 1.00 1.12 1.31 1.49 1.54 1.49 1.45 1.46 1.57 1.68 1.78 1.88 1.92 1.73 1.63 1.54 1.36 1.19 1.00 0.73 0.55 0.41 0.42 0.38 0.37 0.28 0.27 0.33 0.27 0.24 0.20 0.18 0.15 0.14 0.14 0.15 0.14 0.12 0.10
0.71 0.74 0.86 0.88 0.94 1.01 1.15 1.36 1.50 1.50 1.43 1.42 1.43 1.47 1.59 1.66 1.87 1.84 1.74 1.61 1.46 1.28 1.09 0.90 0.68 0.49 0.49 0.47 0.47 0.37 0.30 0.27 0.25 0.26 0.23 0.20 0.19 0.19 0.18 0.20 0.19 0.16 0.13
0.50 0.60 0.69 0.73 0.75 0.77 0.90 1.13 1.30 1.34 1.29 1.23 1.21 1.26 1.44 1.59 1.79 1.90 1.87 1.75 1.64 1.51 1.34 1.20 0.98 0.75 0.62 0.57 0.59 0.59 0.51 0.43 0.40 0.39 0.34 0.27 0.25 0.25 0.24 0.24 0.23 0.21 0.18
0.52 0.61 0.68 0.73 0.74 0.75 0.72 0.78 0.90 1.02 1.05 1.01 0.99 1.00 1.04 1.17 1.41 1.61 1.69 1.72 1.76 1.72 1.62 1.45 1.22 1.02 0.85 0.69 0.63 0.63 0.58 0.59 0.53 0.53 0.51 0.44 0.38 0.38 0.35 0.31 0.26 0.24 0.22
0.47 0.52 0.55 0.61 0.69 0.70 0.67 0.66 0.69 0.74 0.75 0.78 0.80 0.86 0.90 0.91 1.04 1.17 1.29 1.49 1.71 1.72 1.69 1.61 1.39 1.13 0.96 0.81 0.74 0.74 0.73 0.71 0.66 0.59 0.58 0.53 0.48 0.40 0.35 0.31 0.28 0.25 0.23
0.40 0.45 0.49 0.51 0.57 0.63 0.68 0.69 0.58 0.52 0.56 0.60 0.62 0.63 0.67 0.75 0.81 0.87 0.93 1.18 1.47 1.61 1.59 1.56 1.45 1.24 0.99 0.86 0.74 0.70 0.76 0.85 0.83 0.75 0.75 0.64 0.56 0.48 0.41 0.34 0.30 0.28 0.25
0.38 0.43 0.43 0.45 0.53 0.55 0.66 0.63 0.47 0.42 0.44 0.51 0.58 0.56 0.54 0.54 0.57 0.60 0.66 0.76 0.96 1.18 1.39 1.52 1.48 1.30 1.09 0.94 0.85 0.80 0.80 0.83 0.88 0.80 0.80 0.85 0.76 0.70 0.66 0.58 0.56 0.52 0.41
0.34 0.37 0.38 0.40 0.44 0.56 0.57 0.41 0.38 0.38 0.43 0.47 0.51 0.58 0.55 0.49 0.52 0.51 0.56 0.59 0.57 0.64 0.88 1.13 1.27 1.26 1.28 1.09 0.99 0.89 0.83 0.88 0.88 0.78 0.78 0.83 0.83 0.82 0.80 0.77 0.76 0.71 0.61
0.42 0.41 0.44 0.44 0.44 0.49 0.45 0.32 0.33 0.35 0.41 0.46 0.53 0.62 0.66 0.60 0.60 0.65 0.60 0.60 0.55 0.51 0.65 0.67 0.80 1.06 1.16 1.15 1.05 1.06 1.13 1.07 0.92 0.78 0.66 0.67 0.70 0.72 0.73 0.76 0.78 0.69 0.60
0.42 0.44 0.47 0.48 0.43 0.39 0.39 0.29 0.28 0.36 0.42 0.49 0.52 0.57 0.63 0.61 0.72 0.77 0.71 0.79 0.75 0.65 0.73 0.77 0.80 0.81 0.85 0.91 0.95 0.93 0.95 0.98 0.97 0.86 0.67 0.56 0.55 0.54 0.54 0.54 0.53 0.55 0.55
0.24 0.32 0.34 0.38 0.40 0.38 0.46 0.33 0.32 0.36 0.44 0.55 0.59 0.58 0.71 0.69 0.71 0.70 0.64 0.81 0.82 0.70 0.62 0.66 0.62 0.57 0.53 0.59 0.70 0.79 0.92 0.92 0.85 0.74 0.57 0.45 0.42 0.40 0.40 0.35 0.28 0.28 0.30